Location: Unspecified
(48.7670°N, 0.0000°E)
Time: 23:53:15
(UTC+00:00)

Altair - Pass Details

Date: 27 June 2019
Orbit: 1501 x 1683 km, 47.2° (Epoch: 19 July)

Event Time Altitude Azimuth Distance (km) Brightness Sun altitude
Rises 22:32:05 0° 280° (W) 4,761 10.5 -15.1°
Reaches altitude 10° 22:35:07 10° 279° (W) 3,799 10.0 -15.3°
Maximum altitude 22:44:47 73° 197° (SSW) 1,695 7.5 -15.8°
Drops below altitude 10° 22:54:47 10° 115° (ESE) 3,921 9.2 -16.3°
Sets 22:57:59 0° 114° (ESE) 4,920 9.8 -16.5°
